Miscellaneous Local Product
Issued by NWS North Platte, NE

Home | Current Version | Previous Version | Text Only | Print | Product List | Glossary On
Versions: 1 2 3 4 5 6 7 8 9 10 11 12 13 14 15 16 17 18 19 20 21 22 23 24 25 26 27 28 29 30 31 32 33 34 35 36 37 38 39 40 41 42 43 44 45 46 47 48 49 50
000
AXUS43 KLBF 221310
MISLBF


WESTERN AND NORTH CENTRAL NEBRASKA HOURLY WEATHER ROUNDUP
NATIONAL WEATHER SERVICE NORTH PLATTE NE
700 AM CST WED FEB 22 2017

NOTE: "FAIR" INDICATES FEW OR NO CLOUDS BELOW 12,000 FEET WITH NO
SIGNIFICANT WEATHER AND/OR OBSTRUCTIONS TO VISIBILITY.

NOTE: STATIONS NOT REPORTING VARIABLES SUCH AS SKY/WEATHER OR
PRESSURE ARE PROVIDED BY RAWS AND APRS NETWORKS AND ARE NOT UNDER
NATIONAL WEATHER SERVICE QUALITY CONTROL.

...OBSERVATIONS IN AND NEAR THE EASTERN PANHANDLE OF NEBRASKA...

CITY           SKY/WX    TMP DP  RH WIND       PRES   REMARKS
PINE RIDGE     MOCLDY    42  34  73 NW3       29.76S
CHADRON        CLOUDY    43  30  60 S6        29.78S
ALLIANCE       CLEAR     37  30  75 W17       29.79F WCI  27
SIDNEY         CLEAR     38  27  64 W13       29.84S WCI  30
CRESCENT LAKE    N/A     40  31  71 NW13G20     N/A  WCI  32
$$

...OBSERVATIONS IN NORTHERN NEBRASKA AND FAR SOUTHERN SOUTH DAKOTA...

CITY           SKY/WX    TMP DP  RH WIND       PRES   REMARKS
WINNER         FAIR      45  36  70 SW12      29.68R
VALENTINE      CLEAR     40  33  76 W15       29.73R WCI  32
THEDFORD       CLEAR     39  32  76 NW10      29.78R WCI  32
AINSWORTH      CLEAR     38  34  82 SW13      29.71S WCI  31
O`NEILL        CLEAR     43  33  68 NW7       29.68S
ORD            CLEAR     36  28  73 N7        29.69R WCI  30
BROKEN BOW     CLEAR     48  32  53 NW16      29.70F
VALENTINE NWR    N/A     39  32  76 SW6G16      N/A  WCI  35
BUTTE            N/A     42  34  73 W5G12       N/A
HALSEY           N/A     45  33  63 W8          N/A
CHAMBERS         N/A     41  29  63 N3          N/A
EWING            N/A     38  31  77 W3          N/A
$$

...OBSERVATIONS IN SOUTHWEST NEBRASKA AND FAR NORTHEAST COLORADO...

CITY           SKY/WX    TMP DP  RH WIND       PRES   REMARKS
HOLYOKE        FAIR      34  27  75 W8        29.86S WCI  27
IMPERIAL       CLEAR     38  29  70 NW9       29.84R WCI  31
OGALLALA       CLEAR     37  31  81 CALM      29.84R
NORTH PLATTE   CLEAR     30  25  81 NW8       29.79R WCI  22
MCCOOK         CLEAR     45  29  53 NW15      29.79R
LEXINGTON      CLEAR     40  27  59 NW13      29.75R WCI  33
STAPLETON        N/A     39  31  72 CALM        N/A
GOTHENBURG       N/A     38  25  59 W3          N/A
CALLAWAY         N/A     44  31  60 NW7         N/A
$$

...OBSERVATIONS IN CENTRAL LINCOLN COUNTY AREA...

CITY           SKY/WX    TMP DP  RH WIND       PRES   REMARKS
N.P. AIRPORT   CLEAR     30  25  81 NW8       29.79R WCI  22
N.P. DOWNTOWN    N/A     41  34  75 W3          N/A
N.P. SOUTHEAST   N/A     42  33  70 NW3         N/A
N.P. HILLCREST   N/A     41  33  73 NW7         N/A
$$

...SOME OBSERVATIONS FROM AROUND THE REGION...

CITY           SKY/WX    TMP DP  RH WIND       PRES   REMARKS
LARAMIE        LGT SNOW  27  24  89 NW9       29.93S FOG     WCI  18
CHEYENNE       CLEAR     33  22  63 NW17G26   29.90F WCI  22
DENVER         PTCLDY    36  23  59 NE10      29.87R WCI  28
AKRON          PTCLDY    34  27  75 N8        29.88S WCI  27
SCOTTSBLUFF    CLOUDY    43  27  53 W17G26    29.86R
RAPID CITY     CLOUDY    46  32  58 W17       29.70S
BISMARCK       LGT RAIN  35  33  92 N8        29.70S WCI  29
PIERRE         CLOUDY    47  37  68 W13       29.64R
SIOUX FALLS    MOCLDY    37  34  89 W6        29.61S WCI  32
OMAHA          FAIR      45  35  68 SE12      29.67F
GRAND ISLAND   FAIR      35  29  78 W8        29.68F WCI  29
KANSAS CITY    MOCLDY    51  39  63 S12       29.76F
WICHITA        FAIR      40  35  83 S6        29.81F
OKLAHOMA CITY  FAIR      39  36  89 S9        29.85F WCI  33
DALLAS         FAIR      49  41  74 SW6       29.90S
AMARILLO       FAIR      50  26  39 W13       29.92F
DODGE CITY     FAIR      37  24  59 SW13      29.82R WCI  29
HAYS             N/A     42  27  55 N5        29.77S
GOODLAND       PTCLDY    44  22  41 NW14      29.85R
$$




USA.gov is the U.S. government's official web portal to all federal, state and local government web resources and services.